Kelso-Longview, WA
on Thursday, November 15, 2012

Thursday
Previous Day Next Day
Daily Summary
 ActualAverage (KSPB)Record (KSPB)
Temperature
Mean Temperature °F °F  
Max Temperature 48°F °F 62°F (2001)
Min Temperature 37°F °F 27°F (2000)
Degree Days
Heating Degree Days 22    
Month to date heating degree days  
Since 1 July heating degree days  
Cooling Degree Days 0    
Month to date cooling degree days  
Year to date cooling degree days  
Moisture
Dew Point 37°F   
Average Humidity 82    
Maximum Humidity 93    
Minimum Humidity 71    
Precipitation
Precipitation 0.00 in in 0.35 in (2004)
Month to date precipitation  
Year to date precipitation  
Wind
Wind Speed 2 mph   
Max Wind Speed 8 mph   
Max Gust Speed mph   
Visibility 10 miles   
Events     

Key: T is trace of precipitation, MM is missing value
Source: NWS Daily Summary
Time(PST)TemperatureDew PointHumidity Pressure Visibility Wind DirectionWind SpeedGust SpeedPrecipitationEvents Conditions
12:15 AM 39.2°F 35.6°F 87% 30.24 in 10.0 miles Calm Calm - N/A   Mostly Cloudy
12:35 AM 39.2°F 35.6°F 87% 30.23 in 10.0 miles Calm Calm - N/A   Overcast
12:55 AM 39.2°F 37.4°F 93% 30.22 in 10.0 miles Calm Calm - N/A   Overcast
1:15 AM 39.2°F 37.4°F 93% 30.21 in 10.0 miles Calm Calm - N/A   Overcast
1:35 AM 41.0°F 37.4°F 87% 30.21 in 10.0 miles SE 3.5 mph - N/A   Overcast
1:55 AM 41.0°F 37.4°F 87% 30.21 in 10.0 miles Calm Calm - N/A   Overcast
2:15 AM 41.0°F 37.4°F 87% 30.20 in 10.0 miles Calm Calm - N/A   Overcast
2:35 AM 42.8°F 39.2°F 87% 30.20 in 10.0 miles Calm Calm - N/A   Overcast
2:55 AM 42.8°F 37.4°F 81% 30.19 in 10.0 miles North 4.6 mph - N/A   Overcast
3:15 AM 42.8°F 37.4°F 81% 30.18 in 10.0 miles North 4.6 mph - N/A   Overcast
3:35 AM 42.8°F 37.4°F 81% 30.18 in 10.0 miles NE 3.5 mph - N/A   Overcast
3:55 AM 42.8°F 37.4°F 81% 30.17 in 10.0 miles Calm Calm - N/A   Overcast
4:15 AM 42.8°F 37.4°F 81% 30.16 in 10.0 miles North 6.9 mph - N/A   Overcast
4:35 AM 42.8°F 37.4°F 81% 30.16 in 10.0 miles North 3.5 mph - N/A   Overcast
4:55 AM 41.0°F 37.4°F 87% 30.16 in 10.0 miles North 5.8 mph - N/A   Overcast
5:15 AM 41.0°F 37.4°F 87% 30.15 in 10.0 miles Calm Calm - N/A   Overcast
5:35 AM 41.0°F 37.4°F 87% 30.15 in 10.0 miles North 4.6 mph - N/A   Overcast
5:55 AM 41.0°F 35.6°F 81% 30.14 in 10.0 miles North 5.8 mph - N/A   Overcast
6:15 AM 41.0°F 35.6°F 81% 30.13 in 10.0 miles North 4.6 mph - N/A   Overcast
6:35 AM 41.0°F 35.6°F 81% 30.13 in 10.0 miles North 4.6 mph - N/A   Overcast
6:55 AM 39.2°F 35.6°F 87% 30.12 in 10.0 miles NNE 3.5 mph - N/A   Overcast
7:15 AM 39.2°F 33.8°F 81% 30.12 in 10.0 miles Calm Calm - N/A   Mostly Cloudy
7:35 AM 37.4°F 33.8°F 87% 30.12 in 10.0 miles Calm Calm - N/A   Mostly Cloudy
7:55 AM 37.4°F 33.8°F 87% 30.12 in 10.0 miles SE 3.5 mph - N/A   Overcast
8:15 AM 37.4°F 33.8°F 87% 30.11 in 10.0 miles SE 3.5 mph - N/A   Overcast
8:35 AM 39.2°F 35.6°F 87% 30.11 in 10.0 miles Calm Calm - N/A   Overcast
8:55 AM 39.2°F 35.6°F 87% 30.11 in 10.0 miles ESE 3.5 mph - N/A   Overcast
9:15 AM 39.2°F 35.6°F 87% 30.10 in 10.0 miles Calm Calm - N/A   Mostly Cloudy
9:35 AM 41.0°F 35.6°F 81% 30.10 in 10.0 miles Calm Calm - N/A   Mostly Cloudy
9:55 AM 42.8°F 37.4°F 81% 30.10 in 10.0 miles Calm Calm - N/A   Mostly Cloudy
10:15 AM 42.8°F 37.4°F 81% 30.09 in 10.0 miles North 6.9 mph - N/A   Mostly Cloudy
10:35 AM 44.6°F 37.4°F 76% 30.09 in 10.0 miles NNW 6.9 mph - N/A   Mostly Cloudy
10:55 AM 44.6°F 37.4°F 76% 30.07 in 10.0 miles North 8.1 mph - N/A   Mostly Cloudy
11:15 AM 44.6°F 37.4°F 76% 30.07 in 10.0 miles NW 4.6 mph - N/A   Partly Cloudy
11:35 AM 46.4°F 37.4°F 71% 30.06 in 10.0 miles NW 4.6 mph - N/A   Clear
11:55 AM 46.4°F 37.4°F 71% 30.05 in 10.0 miles NW 3.5 mph - N/A   Clear
12:15 PM 46.4°F 37.4°F 71% 30.04 in 10.0 miles North 5.8 mph - N/A   Partly Cloudy
12:35 PM 46.4°F 37.4°F 71% 30.03 in 10.0 miles NNW 6.9 mph - N/A   Clear
12:55 PM 46.4°F 37.4°F 71% 30.03 in 10.0 miles NNW 4.6 mph - N/A   Clear
1:15 PM 48.2°F 39.2°F 71% 30.03 in 10.0 miles NW 4.6 mph - N/A   Clear
1:35 PM 48.2°F 39.2°F 71% 30.02 in 10.0 miles NNW 8.1 mph - N/A   Clear
1:55 PM 48.2°F 39.2°F 71% 30.01 in 10.0 miles NNW 6.9 mph - N/A   Clear
2:15 PM 48.2°F 39.2°F 71% 30.00 in 10.0 miles NNW 6.9 mph - N/A   Clear
2:35 PM 48.2°F 39.2°F 71% 29.99 in 10.0 miles NNW 6.9 mph - N/A   Clear
2:55 PM 48.2°F 39.2°F 71% 29.99 in 10.0 miles NW 3.5 mph - N/A   Clear
3:15 PM 48.2°F 39.2°F 71% 29.99 in 10.0 miles NW 4.6 mph - N/A   Clear
3:35 PM 48.2°F 41.0°F 76% 29.99 in 10.0 miles NNW 6.9 mph - N/A   Clear
3:55 PM 48.2°F 39.2°F 71% 29.99 in 10.0 miles NNW 5.8 mph - N/A   Clear
4:15 PM 46.4°F 39.2°F 76% 29.98 in 10.0 miles NNW 5.8 mph - N/A   Clear
4:35 PM 46.4°F 39.2°F 76% 29.98 in 10.0 miles NNW 4.6 mph - N/A   Clear
4:55 PM 44.6°F 39.2°F 81% 29.98 in 10.0 miles NNW 4.6 mph - N/A   Clear
5:15 PM 44.6°F 39.2°F 81% 29.97 in 10.0 miles NNW 4.6 mph - N/A   Clear
5:35 PM 44.6°F 37.4°F 76% 29.97 in 10.0 miles Calm Calm - N/A   Clear
5:55 PM 42.8°F 39.2°F 87% 29.97 in 10.0 miles North 3.5 mph - N/A   Clear
6:15 PM 42.8°F 37.4°F 81% 29.98 in 10.0 miles North 4.6 mph - N/A   Clear
6:35 PM 42.8°F 37.4°F 81% 29.97 in 10.0 miles NNW 3.5 mph - N/A   Clear
6:55 PM 41.0°F 37.4°F 87% 29.97 in 10.0 miles Calm Calm - N/A   Clear
7:15 PM 41.0°F 37.4°F 87% 29.97 in 10.0 miles North 3.5 mph - N/A   Clear
7:35 PM 39.2°F 35.6°F 87% 29.97 in 10.0 miles Calm Calm - N/A   Clear
7:55 PM 39.2°F 35.6°F 87% 29.98 in 10.0 miles Calm Calm - N/A   Clear
8:15 PM 39.2°F 35.6°F 87% 29.97 in 10.0 miles Calm Calm - N/A   Clear
8:35 PM 39.2°F 35.6°F 87% 29.97 in 10.0 miles Calm Calm - N/A   Mostly Cloudy
8:55 PM 39.2°F 37.4°F 93% 29.97 in 10.0 miles Calm Calm - N/A   Overcast
9:15 PM 39.2°F 37.4°F 93% 29.96 in 10.0 miles Calm Calm - N/A   Overcast
9:35 PM 39.2°F 35.6°F 87% 29.97 in 10.0 miles Calm Calm - N/A   Overcast
9:55 PM 39.2°F 37.4°F 93% 29.97 in 3.0 miles NNW 3.5 mph - N/A   Overcast
10:15 PM 39.2°F 37.4°F 93% 29.96 in 7.0 miles Calm Calm - N/A   Overcast
10:35 PM 39.2°F 35.6°F 87% 29.96 in 10.0 miles Calm Calm - N/A   Overcast
10:55 PM 39.2°F 37.4°F 93% 29.95 in 9.0 miles Calm Calm - N/A   Overcast
11:15 PM 39.2°F 35.6°F 87% 29.95 in 10.0 miles Calm Calm - N/A   Overcast
11:35 PM 39.2°F 35.6°F 87% 29.95 in 10.0 miles Calm Calm - N/A   Overcast
11:55 PM 37.4°F 35.6°F 93% 29.95 in 8.0 miles Calm Calm - N/A   Overcast
Moon Phase
Nov. 15 Nov. 20 Nov. 28 Dec. 06 Dec. 13
Sunrise:07:13 AM (PST) Moon Rise:09:18 AM (PST)11/15
Sunset:04:38 PM (PST) Moon Set:06:32 PM (PST)11/15

Copyright © 2014 The Weather Underground, Inc.